Time,TemperatureF,DewpointF,PressureIn,WindDirection,WindDirectionDegrees,WindSpeedMPH,WindSpeedGustMPH,Humidity,HourlyPrecipIn,Conditions,Clouds,dailyrainin,SolarRadiationWatts/m^2,SoftwareType,DateUTC
2014-01-02 00:03:00,54.7,15.6,30.04,NNW,346,0.0,0.0,21,0.00,,---,0.00,0.00,VWS V15.00,2014-01-02 08:03:00,
2014-01-02 00:08:00,55.1,14.8,30.04,NNW,346,0.0,0.0,20,0.00,,---,0.00,0.00,VWS V15.00,2014-01-02 08:08:00,
2014-01-02 00:13:00,55.7,15.3,30.04,NNW,346,0.0,0.0,20,0.00,,---,0.00,0.00,VWS V15.00,2014-01-02 08:13:00,
2014-01-02 00:18:00,55.7,14.1,30.04,NNW,346,0.0,0.0,19,0.00,,---,0.00,0.00,VWS V15.00,2014-01-02 08:18:00,
2014-01-02 00:23:00,55.0,14.7,30.04,NNW,346,0.0,0.0,20,0.00,,---,0.00,0.00,VWS V15.00,2014-01-02 08:23:00,
2014-01-02 00:28:00,54.8,15.6,30.04,NNW,346,0.0,0.0,21,0.00,,---,0.00,0.00,VWS V15.00,2014-01-02 08:28:00,
2014-01-02 00:33:00,54.1,15.1,30.04,NNW,346,0.0,0.0,21,0.00,,---,0.00,0.00,VWS V15.00,2014-01-02 08:33:00,
2014-01-02 00:38:00,53.2,15.4,30.04,NNW,346,0.0,0.0,22,0.00,,---,0.00,0.00,VWS V15.00,2014-01-02 08:38:00,
2014-01-02 00:43:00,53.1,15.3,30.04,NNW,346,0.0,1.0,22,0.00,,---,0.00,0.00,VWS V15.00,2014-01-02 08:43:00,
2014-01-02 00:48:00,52.5,15.8,30.04,NNW,346,0.0,1.0,23,0.00,,---,0.00,0.00,VWS V15.00,2014-01-02 08:48:00,
2014-01-02 00:53:00,53.6,15.7,30.04,NNW,346,0.0,1.0,22,0.00,,---,0.00,0.00,VWS V15.00,2014-01-02 08:53:00,
2014-01-02 00:58:00,54.7,15.6,30.04,NNW,346,0.0,1.0,21,0.00,,---,0.00,0.00,VWS V15.00,2014-01-02 08:58:00,
2014-01-02 01:03:00,55.4,15.0,30.04,NNW,346,0.0,1.0,20,0.00,,---,0.00,0.00,VWS V15.00,2014-01-02 09:03:00,
2014-01-02 01:09:00,55.6,15.2,30.04,NNW,346,0.0,1.0,20,0.00,,---,0.00,0.00,VWS V15.00,2014-01-02 09:09:00,
2014-01-02 01:14:00,55.3,14.9,30.04,NNW,346,0.0,1.0,20,0.00,,---,0.00,0.00,VWS V15.00,2014-01-02 09:14:00,
2014-01-02 01:19:00,55.0,15.8,30.04,NNW,346,0.0,1.0,21,0.00,,---,0.00,0.00,VWS V15.00,2014-01-02 09:19:00,
2014-01-02 01:24:00,54.1,16.1,30.04,NNW,346,0.0,1.0,22,0.00,,---,0.00,0.00,VWS V15.00,2014-01-02 09:24:00,
2014-01-02 01:29:00,54.2,16.2,30.04,NNW,346,0.0,1.0,22,0.00,,---,0.00,0.00,VWS V15.00,2014-01-02 09:29:00,
2014-01-02 01:34:00,54.5,15.4,30.04,NNW,346,0.0,1.0,21,0.00,,---,0.00,0.00,VWS V15.00,2014-01-02 09:34:00,
2014-01-02 01:39:00,54.7,15.6,30.04,NNW,346,0.0,1.0,21,0.00,,---,0.00,0.00,VWS V15.00,2014-01-02 09:39:00,
2014-01-02 01:44:00,55.0,15.8,30.04,NNW,346,0.0,1.0,21,0.00,,---,0.00,0.00,VWS V15.00,2014-01-02 09:44:00,
2014-01-02 01:49:00,54.1,16.1,30.04,NNW,346,0.0,1.0,22,0.00,,---,0.00,0.00,VWS V15.00,2014-01-02 09:49:00,
2014-01-02 01:54:00,54.4,16.4,30.04,NNW,346,0.0,1.0,22,0.00,,---,0.00,0.00,VWS V15.00,2014-01-02 09:54:00,
2014-01-02 01:59:00,54.1,16.1,30.04,NNW,346,0.0,1.0,22,0.00,,---,0.00,0.00,VWS V15.00,2014-01-02 09:59:00,
2014-01-02 02:04:00,54.1,16.1,30.03,NNW,346,0.0,0.0,22,0.00,,---,0.00,0.00,VWS V15.00,2014-01-02 10:04:00,
2014-01-02 02:09:00,53.5,16.6,30.03,NNW,346,0.0,1.0,23,0.00,,---,0.00,0.00,VWS V15.00,2014-01-02 10:09:00,
2014-01-02 02:14:00,53.6,15.7,30.03,NNW,346,0.0,1.0,22,0.00,,---,0.00,0.00,VWS V15.00,2014-01-02 10:14:00,
2014-01-02 02:19:00,54.1,16.1,30.03,NNW,346,0.0,1.0,22,0.00,,---,0.00,0.00,VWS V15.00,2014-01-02 10:19:00,
2014-01-02 02:24:00,54.4,15.3,30.03,NNW,346,0.0,1.0,21,0.00,,---,0.00,0.00,VWS V15.00,2014-01-02 10:24:00,
2014-01-02 02:29:00,54.7,15.6,30.03,NNW,346,0.0,1.0,21,0.00,,---,0.00,0.00,VWS V15.00,2014-01-02 10:29:00,
2014-01-02 02:34:00,54.5,15.4,30.03,NNW,346,0.0,1.0,21,0.00,,---,0.00,0.00,VWS V15.00,2014-01-02 10:34:00,
2014-01-02 02:39:00,54.5,15.4,30.03,NNW,346,0.0,1.0,21,0.00,,---,0.00,0.00,VWS V15.00,2014-01-02 10:39:00,
2014-01-02 02:44:00,53.8,15.9,30.03,NNW,346,0.0,1.0,22,0.00,,---,0.00,0.00,VWS V15.00,2014-01-02 10:44:00,
2014-01-02 02:49:00,54.2,16.2,30.02,NNW,346,0.0,1.0,22,0.00,,---,0.00,0.00,VWS V15.00,2014-01-02 10:49:00,
2014-01-02 02:54:00,54.1,16.1,30.02,NNW,346,0.0,1.0,22,0.00,,---,0.00,0.00,VWS V15.00,2014-01-02 10:54:00,
2014-01-02 02:59:00,54.4,15.3,30.02,NNW,346,0.0,1.0,21,0.00,,---,0.00,0.00,VWS V15.00,2014-01-02 10:59:00,
2014-01-02 03:04:00,53.9,14.9,30.02,NNW,346,0.0,1.0,21,0.00,,---,0.00,0.00,VWS V15.00,2014-01-02 11:04:00,
2014-01-02 03:09:00,53.5,15.6,30.02,NNW,346,0.0,1.0,22,0.00,,---,0.00,0.00,VWS V15.00,2014-01-02 11:09:00,
2014-01-02 03:14:00,53.2,15.4,30.02,NNW,346,0.0,1.0,22,0.00,,---,0.00,0.00,VWS V15.00,2014-01-02 11:14:00,
2014-01-02 03:19:00,52.9,16.1,30.02,NNW,346,0.0,1.0,23,0.00,,---,0.00,0.00,VWS V15.00,2014-01-02 11:19:00,
2014-01-02 03:24:00,53.1,16.3,30.02,NNW,346,0.0,1.0,23,0.00,,---,0.00,0.00,VWS V15.00,2014-01-02 11:24:00,
2014-01-02 03:29:00,52.9,16.1,30.02,NNW,346,0.0,1.0,23,0.00,,---,0.00,0.00,VWS V15.00,2014-01-02 11:29:00,
2014-01-02 03:34:00,52.8,16.0,30.02,NNW,346,0.0,1.0,23,0.00,,---,0.00,0.00,VWS V15.00,2014-01-02 11:34:00,
2014-01-02 03:39:00,52.9,16.1,30.02,NNW,346,0.0,1.0,23,0.00,,---,0.00,0.00,VWS V15.00,2014-01-02 11:39:00,
2014-01-02 03:44:00,53.1,16.3,30.02,NNW,346,0.0,1.0,23,0.00,,---,0.00,0.00,VWS V15.00,2014-01-02 11:44:00,
2014-01-02 03:49:00,52.9,16.1,30.02,NNW,346,0.0,1.0,23,0.00,,---,0.00,0.00,VWS V15.00,2014-01-02 11:49:00,
2014-01-02 03:54:00,52.6,15.9,30.02,NNW,346,0.0,1.0,23,0.00,,---,0.00,0.00,VWS V15.00,2014-01-02 11:54:00,
2014-01-02 03:59:00,52.9,16.1,30.02,NNW,346,0.0,1.0,23,0.00,,---,0.00,0.00,VWS V15.00,2014-01-02 11:59:00,
2014-01-02 04:04:00,52.6,15.9,30.02,NNW,346,0.0,0.0,23,0.00,,---,0.00,0.00,VWS V15.00,2014-01-02 12:04:00,
2014-01-02 04:09:00,52.6,15.9,30.02,NNW,346,0.0,0.0,23,0.00,,---,0.00,0.00,VWS V15.00,2014-01-02 12:09:00,
2014-01-02 04:15:00,52.8,16.0,30.02,NNW,346,0.0,0.0,23,0.00,,---,0.00,0.00,VWS V15.00,2014-01-02 12:15:00,
2014-01-02 04:20:00,53.3,16.5,30.02,NNW,346,0.0,0.0,23,0.00,,---,0.00,0.00,VWS V15.00,2014-01-02 12:20:00,
2014-01-02 04:25:00,54.2,16.2,30.02,NNW,346,0.0,0.0,22,0.00,,---,0.00,0.00,VWS V15.00,2014-01-02 12:25:00,
2014-01-02 04:30:00,53.6,16.7,30.02,NNW,346,0.0,0.0,23,0.00,,---,0.00,0.00,VWS V15.00,2014-01-02 12:30:00,
2014-01-02 04:35:00,53.3,16.5,30.02,NNW,346,0.0,0.0,23,0.00,,---,0.00,0.00,VWS V15.00,2014-01-02 12:35:00,
2014-01-02 04:40:00,53.8,15.9,30.02,NNW,346,0.0,0.0,22,0.00,,---,0.00,0.00,VWS V15.00,2014-01-02 12:40:00,
2014-01-02 04:45:00,54.8,15.6,30.02,NNW,346,0.0,0.0,21,0.00,,---,0.00,0.00,VWS V15.00,2014-01-02 12:45:00,
2014-01-02 04:50:00,54.8,15.6,30.02,NNW,346,0.0,0.0,21,0.00,,---,0.00,0.00,VWS V15.00,2014-01-02 12:50:00,
2014-01-02 04:55:00,54.4,16.4,30.02,NNW,346,0.0,0.0,22,0.00,,---,0.00,0.00,VWS V15.00,2014-01-02 12:55:00,
2014-01-02 05:00:00,53.9,15.9,30.02,NNW,346,0.0,0.0,22,0.00,,---,0.00,0.00,VWS V15.00,2014-01-02 13:00:00,
2014-01-02 05:05:00,54.7,15.6,30.02,NNW,346,0.0,0.0,21,0.00,,---,0.00,0.00,VWS V15.00,2014-01-02 13:05:00,
2014-01-02 05:10:00,54.7,15.6,30.02,NNW,346,0.0,0.0,21,0.00,,---,0.00,0.00,VWS V15.00,2014-01-02 13:10:00,
2014-01-02 05:15:00,54.2,16.2,30.02,NNW,346,0.0,0.0,22,0.00,,---,0.00,0.00,VWS V15.00,2014-01-02 13:15:00,
2014-01-02 05:20:00,54.1,16.1,30.02,NNW,346,0.0,0.0,22,0.00,,---,0.00,0.00,VWS V15.00,2014-01-02 13:20:00,
2014-01-02 05:25:00,53.6,16.7,30.02,NNW,346,0.0,0.0,23,0.00,,---,0.00,0.00,VWS V15.00,2014-01-02 13:25:00,
2014-01-02 05:30:00,54.1,16.1,30.02,NNW,346,0.0,0.0,22,0.00,,---,0.00,0.00,VWS V15.00,2014-01-02 13:30:00,
2014-01-02 05:35:00,55.1,15.9,30.02,NNW,346,0.0,0.0,21,0.00,,---,0.00,0.00,VWS V15.00,2014-01-02 13:35:00,
2014-01-02 05:40:00,54.8,16.7,30.02,NNW,346,0.0,0.0,22,0.00,,---,0.00,0.00,VWS V15.00,2014-01-02 13:40:00,
2014-01-02 05:45:00,54.1,16.1,30.02,NNW,346,0.0,0.0,22,0.00,,---,0.00,0.00,VWS V15.00,2014-01-02 13:45:00,
2014-01-02 05:50:00,53.8,16.9,30.02,NNW,346,0.0,0.0,23,0.00,,---,0.00,0.00,VWS V15.00,2014-01-02 13:50:00,
2014-01-02 05:55:00,53.1,17.3,30.02,NNW,346,0.0,0.0,24,0.00,,---,0.00,0.00,VWS V15.00,2014-01-02 13:55:00,
2014-01-02 06:00:00,52.8,17.0,30.02,NNW,346,0.0,0.0,24,0.00,,---,0.00,0.00,VWS V15.00,2014-01-02 14:00:00,
2014-01-02 06:05:00,52.9,17.1,30.02,NNW,346,0.0,0.0,24,0.00,,---,0.00,0.00,VWS V15.00,2014-01-02 14:05:00,
2014-01-02 06:10:00,52.6,17.8,30.02,NNW,346,0.0,1.0,25,0.00,,---,0.00,0.00,VWS V15.00,2014-01-02 14:10:00,
2014-01-02 06:15:00,52.2,17.5,30.02,NNW,346,0.0,1.0,25,0.00,,---,0.00,0.00,VWS V15.00,2014-01-02 14:15:00,
2014-01-02 06:20:00,52.2,17.5,30.02,NNW,346,0.0,1.0,25,0.00,,---,0.00,0.00,VWS V15.00,2014-01-02 14:20:00,
2014-01-02 06:25:00,52.9,17.1,30.02,NNW,346,0.0,1.0,24,0.00,,---,0.00,0.00,VWS V15.00,2014-01-02 14:25:00,
2014-01-02 06:30:00,52.9,17.1,30.02,NNW,346,0.0,1.0,24,0.00,,---,0.00,0.00,VWS V15.00,2014-01-02 14:30:00,
2014-01-02 06:35:00,51.9,17.2,30.02,NNW,346,0.0,1.0,25,0.00,,---,0.00,0.00,VWS V15.00,2014-01-02 14:35:00,
2014-01-02 06:40:00,51.1,17.4,30.02,NNW,346,0.0,1.0,26,0.00,,---,0.00,0.00,VWS V15.00,2014-01-02 14:40:00,
2014-01-02 06:45:00,51.0,17.3,30.02,NNW,346,0.0,1.0,26,0.00,,---,0.00,0.00,VWS V15.00,2014-01-02 14:45:00,
2014-01-02 06:50:00,51.0,18.2,30.02,NNW,346,0.0,1.0,27,0.00,,---,0.00,0.00,VWS V15.00,2014-01-02 14:50:00,
2014-01-02 06:56:00,52.6,17.8,30.02,NNW,346,0.0,1.0,25,0.00,,---,0.00,5.00,VWS V15.00,2014-01-02 14:56:00,
2014-01-02 07:01:00,53.3,17.5,30.02,NNW,346,0.0,1.0,24,0.00,,---,0.00,7.00,VWS V15.00,2014-01-02 15:01:00,
2014-01-02 07:06:00,52.8,18.0,30.02,NNW,346,0.0,1.0,25,0.00,,---,0.00,11.00,VWS V15.00,2014-01-02 15:06:00,
2014-01-02 07:11:00,52.8,18.0,30.02,NNW,347,0.0,2.0,25,0.00,,---,0.00,19.00,VWS V15.00,2014-01-02 15:11:00,
2014-01-02 07:16:00,53.2,17.4,30.03,NNW,347,0.0,2.0,24,0.00,,---,0.00,28.00,VWS V15.00,2014-01-02 15:16:00,
2014-01-02 07:21:00,53.8,18.8,30.03,NNW,347,0.0,2.0,25,0.00,,---,0.00,49.00,VWS V15.00,2014-01-02 15:21:00,
2014-01-02 07:26:00,53.8,18.8,30.03,NNW,347,0.0,2.0,25,0.00,,---,0.00,58.00,VWS V15.00,2014-01-02 15:26:00,
2014-01-02 07:31:00,54.2,18.2,30.03,NNW,347,0.0,2.0,24,0.00,,---,0.00,37.00,VWS V15.00,2014-01-02 15:31:00,
2014-01-02 07:36:00,55.1,19.0,30.03,NNW,347,0.0,2.0,24,0.00,,---,0.00,26.00,VWS V15.00,2014-01-02 15:36:00,
2014-01-02 07:41:00,55.1,19.0,30.03,NNW,347,0.0,2.0,24,0.00,,---,0.00,37.00,VWS V15.00,2014-01-02 15:41:00,
2014-01-02 07:46:00,55.3,19.1,30.03,NNW,347,0.0,2.0,24,0.00,,---,0.00,26.00,VWS V15.00,2014-01-02 15:46:00,
2014-01-02 07:51:00,56.0,19.7,30.03,NNW,347,0.0,2.0,24,0.00,,---,0.00,32.00,VWS V15.00,2014-01-02 15:51:00,
2014-01-02 07:56:00,56.3,21.0,30.03,NNW,347,0.0,2.0,25,0.00,,---,0.00,148.00,VWS V15.00,2014-01-02 15:56:00,
2014-01-02 08:01:00,57.6,19.1,30.03,North,350,0.0,1.0,22,0.00,,---,0.00,158.00,VWS V15.00,2014-01-02 16:01:00,
2014-01-02 08:06:00,58.0,20.4,30.03,North,350,0.0,1.0,23,0.00,,---,0.00,176.00,VWS V15.00,2014-01-02 16:06:00,
2014-01-02 08:11:00,58.6,20.9,30.03,North,350,0.0,1.0,23,0.00,,---,0.00,188.00,VWS V15.00,2014-01-02 16:11:00,
2014-01-02 08:16:00,59.3,20.5,30.03,North,350,0.0,1.0,22,0.00,,---,0.00,204.00,VWS V15.00,2014-01-02 16:16:00,
2014-01-02 08:21:00,59.8,20.9,30.03,North,350,0.0,1.0,22,0.00,,---,0.00,218.00,VWS V15.00,2014-01-02 16:21:00,
2014-01-02 08:26:00,60.5,20.4,30.03,North,350,0.0,1.0,21,0.00,,---,0.00,232.00,VWS V15.00,2014-01-02 16:26:00,
2014-01-02 08:31:00,61.2,19.8,30.04,North,350,0.0,1.0,20,0.00,,---,0.00,246.00,VWS V15.00,2014-01-02 16:31:00,
2014-01-02 08:36:00,61.8,19.1,30.04,North,350,0.0,1.0,19,0.00,,---,0.00,260.00,VWS V15.00,2014-01-02 16:36:00,
2014-01-02 08:41:00,62.1,20.6,30.04,North,350,0.0,1.0,20,0.00,,---,0.00,274.00,VWS V15.00,2014-01-02 16:41:00,
2014-01-02 08:46:00,62.1,19.4,30.04,North,360,0.0,3.0,19,0.00,,---,0.00,287.00,VWS V15.00,2014-01-02 16:46:00,
2014-01-02 08:51:00,62.1,19.4,30.04,North,360,0.0,3.0,19,0.00,,---,0.00,301.00,VWS V15.00,2014-01-02 16:51:00,
2014-01-02 08:56:00,62.9,20.0,30.04,North,360,0.0,3.0,19,0.00,,---,0.00,315.00,VWS V15.00,2014-01-02 16:56:00,
2014-01-02 09:02:00,63.7,20.7,30.04,North,360,0.0,3.0,19,0.00,,---,0.00,327.00,VWS V15.00,2014-01-02 17:02:00,
2014-01-02 09:07:00,63.7,19.4,30.04,North,360,0.0,3.0,18,0.00,,---,0.00,339.00,VWS V15.00,2014-01-02 17:07:00,
2014-01-02 09:12:00,64.8,20.3,30.04,North,360,0.0,3.0,18,0.00,,---,0.00,353.00,VWS V15.00,2014-01-02 17:12:00,
2014-01-02 09:17:00,65.2,19.3,30.04,North,360,0.0,3.0,17,0.00,,---,0.00,364.00,VWS V15.00,2014-01-02 17:17:00,
2014-01-02 09:22:00,65.5,19.6,30.04,North,360,0.0,3.0,17,0.00,,---,0.00,376.00,VWS V15.00,2014-01-02 17:22:00,
2014-01-02 09:27:00,66.1,20.0,30.04,North,360,0.0,3.0,17,0.00,,---,0.00,388.00,VWS V15.00,2014-01-02 17:27:00,
2014-01-02 09:32:00,66.4,17.4,30.04,North,360,0.0,3.0,15,0.00,,---,0.00,401.00,VWS V15.00,2014-01-02 17:32:00,
2014-01-02 09:37:00,66.8,19.2,30.04,North,360,0.0,3.0,16,0.00,,---,0.00,410.00,VWS V15.00,2014-01-02 17:37:00,
2014-01-02 09:42:00,67.1,17.9,30.04,North,360,0.0,3.0,15,0.00,,---,0.00,420.00,VWS V15.00,2014-01-02 17:42:00,
2014-01-02 09:47:00,66.9,17.8,30.04,North,360,1.0,3.0,15,0.00,,---,0.00,431.00,VWS V15.00,2014-01-02 17:47:00,
2014-01-02 09:52:00,67.1,17.9,30.04,NNW,341,1.0,3.0,15,0.00,,---,0.00,441.00,VWS V15.00,2014-01-02 17:52:00,
2014-01-02 09:57:00,67.6,18.3,30.04,NNW,342,0.0,3.0,15,0.00,,---,0.00,452.00,VWS V15.00,2014-01-02 17:57:00,
2014-01-02 10:02:00,68.1,18.7,30.04,NNW,342,0.0,2.0,15,0.00,,---,0.00,462.00,VWS V15.00,2014-01-02 18:02:00,
2014-01-02 10:07:00,68.1,18.7,30.04,NNW,342,0.0,3.0,15,0.00,,---,0.00,471.00,VWS V15.00,2014-01-02 18:07:00,
2014-01-02 10:12:00,68.3,17.3,30.04,NNW,342,0.0,3.0,14,0.00,,---,0.00,475.00,VWS V15.00,2014-01-02 18:12:00,
2014-01-02 10:17:00,68.9,17.8,30.03,NNW,342,0.0,3.0,14,0.00,,---,0.00,483.00,VWS V15.00,2014-01-02 18:17:00,
2014-01-02 10:22:00,69.1,17.9,30.03,NW,324,2.0,5.0,14,0.00,,---,0.00,497.00,VWS V15.00,2014-01-02 18:22:00,
2014-01-02 10:27:00,69.4,18.2,30.03,NW,309,1.0,5.0,14,0.00,,---,0.00,504.00,VWS V15.00,2014-01-02 18:27:00,
2014-01-02 10:33:00,69.6,16.6,30.03,NW,309,1.0,5.0,13,0.00,,---,0.00,513.00,VWS V15.00,2014-01-02 18:33:00,
2014-01-02 10:38:00,69.8,18.5,30.03,NW,309,0.0,5.0,14,0.00,,---,0.00,520.00,VWS V15.00,2014-01-02 18:38:00,
2014-01-02 10:43:00,70.4,17.2,30.03,NW,309,1.0,5.0,13,0.00,,---,0.00,527.00,VWS V15.00,2014-01-02 18:43:00,
2014-01-02 10:48:00,70.8,17.6,30.03,NW,311,3.0,5.0,13,0.00,,---,0.00,534.00,VWS V15.00,2014-01-02 18:48:00,
2014-01-02 10:53:00,71.1,17.8,30.03,NNW,337,0.0,6.0,13,0.00,,---,0.00,540.00,VWS V15.00,2014-01-02 18:53:00,
2014-01-02 10:58:00,71.5,18.1,30.03,NNW,341,0.0,6.0,13,0.00,,---,0.00,547.00,VWS V15.00,2014-01-02 18:58:00,
2014-01-02 11:03:00,72.0,18.5,30.01,NNW,340,0.0,6.0,13,0.00,,---,0.00,548.00,VWS V15.00,2014-01-02 19:03:00,
2014-01-02 11:08:00,72.5,18.9,30.01,NNW,347,2.0,6.0,13,0.00,,---,0.00,555.00,VWS V15.00,2014-01-02 19:08:00,
2014-01-02 11:13:00,72.7,17.2,30.01,NNW,348,1.0,6.0,12,0.00,,---,0.00,563.00,VWS V15.00,2014-01-02 19:13:00,
2014-01-02 11:18:00,73.0,19.3,30.01,North,349,0.0,6.0,13,0.00,,---,0.00,564.00,VWS V15.00,2014-01-02 19:18:00,
2014-01-02 11:23:00,73.0,17.4,30.01,NNE,23,4.0,6.0,12,0.00,,---,0.00,570.00,VWS V15.00,2014-01-02 19:23:00,
2014-01-02 11:28:00,72.8,17.3,30.01,NNE,16,1.0,6.0,12,0.00,,---,0.00,570.00,VWS V15.00,2014-01-02 19:28:00,
2014-01-02 11:33:00,72.8,17.3,30.00,NNE,17,0.0,6.0,12,0.00,,---,0.00,573.00,VWS V15.00,2014-01-02 19:33:00,
2014-01-02 11:38:00,73.2,17.6,30.00,North,350,0.0,6.0,12,0.00,,---,0.00,578.00,VWS V15.00,2014-01-02 19:38:00,
2014-01-02 11:43:00,74.0,16.2,30.00,North,355,0.0,6.0,11,0.00,,---,0.00,580.00,VWS V15.00,2014-01-02 19:43:00,
2014-01-02 11:48:00,74.0,18.2,29.99,NNE,32,0.0,6.0,12,0.00,,---,0.00,584.00,VWS V15.00,2014-01-02 19:48:00,
2014-01-02 11:53:00,73.9,20.0,29.99,NNE,32,0.0,6.0,13,0.00,,---,0.00,585.00,VWS V15.00,2014-01-02 19:53:00,
2014-01-02 11:58:00,74.4,16.5,29.99,NNW,327,1.0,6.0,11,0.00,,---,0.00,563.00,VWS V15.00,2014-01-02 19:58:00,
2014-01-02 12:03:00,74.2,16.4,29.98,NNE,22,2.0,2.0,11,0.00,,---,0.00,582.00,VWS V15.00,2014-01-02 20:03:00,
2014-01-02 12:08:00,74.4,16.5,29.98,NNE,22,0.0,2.0,11,0.00,,---,0.00,580.00,VWS V15.00,2014-01-02 20:08:00,
2014-01-02 12:13:00,74.9,18.9,29.98,NNW,332,0.0,4.0,12,0.00,,---,0.00,566.00,VWS V15.00,2014-01-02 20:13:00,
2014-01-02 12:18:00,75.4,19.3,29.98,NE,53,0.0,4.0,12,0.00,,---,0.00,559.00,VWS V15.00,2014-01-02 20:18:00,
2014-01-02 12:23:00,75.6,17.4,29.98,NE,39,0.0,6.0,11,0.00,,---,0.00,529.00,VWS V15.00,2014-01-02 20:23:00,
2014-01-02 12:28:00,75.6,17.4,29.98,North,11,2.0,6.0,11,0.00,,---,0.00,536.00,VWS V15.00,2014-01-02 20:28:00,
2014-01-02 12:33:00,75.8,17.6,29.97,NNE,33,1.0,6.0,11,0.00,,---,0.00,538.00,VWS V15.00,2014-01-02 20:33:00,
2014-01-02 12:38:00,76.3,18.0,29.97,NNW,333,0.0,6.0,11,0.00,,---,0.00,545.00,VWS V15.00,2014-01-02 20:38:00,
2014-01-02 12:43:00,76.3,18.0,29.97,NE,36,0.0,6.0,11,0.00,,---,0.00,545.00,VWS V15.00,2014-01-02 20:43:00,
2014-01-02 12:48:00,76.5,18.1,29.96,NE,42,0.0,6.0,11,0.00,,---,0.00,550.00,VWS V15.00,2014-01-02 20:48:00,
2014-01-02 12:53:00,76.3,18.0,29.96,NW,322,2.0,6.0,11,0.00,,---,0.00,543.00,VWS V15.00,2014-01-02 20:53:00,
2014-01-02 12:58:00,76.0,19.8,29.96,NW,326,0.0,6.0,12,0.00,,---,0.00,534.00,VWS V15.00,2014-01-02 20:58:00,
2014-01-02 13:03:00,76.3,18.0,29.95,WNW,299,3.0,6.0,11,0.00,,---,0.00,513.00,VWS V15.00,2014-01-02 21:03:00,
2014-01-02 13:08:00,76.7,20.3,29.95,WNW,300,4.0,6.0,12,0.00,,---,0.00,517.00,VWS V15.00,2014-01-02 21:08:00,
2014-01-02 13:14:00,76.8,18.4,29.95,NNW,347,0.0,7.0,11,0.00,,---,0.00,513.00,VWS V15.00,2014-01-02 21:14:00,
2014-01-02 13:19:00,76.8,18.4,29.95,NNE,23,3.0,7.0,11,0.00,,---,0.00,512.00,VWS V15.00,2014-01-02 21:19:00,
2014-01-02 13:24:00,77.0,18.5,29.95,NNW,338,6.0,7.0,11,0.00,,---,0.00,503.00,VWS V15.00,2014-01-02 21:24:00,
2014-01-02 13:29:00,76.5,18.1,29.95,NNE,22,0.0,8.0,11,0.00,,---,0.00,494.00,VWS V15.00,2014-01-02 21:29:00,
2014-01-02 13:34:00,77.0,18.5,29.94,NW,308,1.0,8.0,11,0.00,,---,0.00,487.00,VWS V15.00,2014-01-02 21:34:00,
2014-01-02 13:39:00,77.6,19.0,29.94,NW,323,0.0,8.0,11,0.00,,---,0.00,476.00,VWS V15.00,2014-01-02 21:39:00,
2014-01-02 13:44:00,77.2,18.7,29.94,WNW,299,2.0,8.0,11,0.00,,---,0.00,468.00,VWS V15.00,2014-01-02 21:44:00,
2014-01-02 13:49:00,77.4,18.8,29.94,NNE,15,2.0,8.0,11,0.00,,---,0.00,457.00,VWS V15.00,2014-01-02 21:49:00,
2014-01-02 13:54:00,77.4,18.8,29.94,West,279,3.0,8.0,11,0.00,,---,0.00,446.00,VWS V15.00,2014-01-02 21:54:00,
2014-01-02 13:59:00,77.2,18.7,29.94,NNW,330,1.0,8.0,11,0.00,,---,0.00,438.00,VWS V15.00,2014-01-02 21:59:00,
2014-01-02 14:04:00,77.0,18.5,29.94,NW,305,2.0,5.0,11,0.00,,---,0.00,429.00,VWS V15.00,2014-01-02 22:04:00,
2014-01-02 14:09:00,77.0,16.3,29.94,NNW,338,4.0,5.0,10,0.00,,---,0.00,420.00,VWS V15.00,2014-01-02 22:09:00,
2014-01-02 14:14:00,76.8,16.2,29.94,North,5,6.0,6.0,10,0.00,,---,0.00,410.00,VWS V15.00,2014-01-02 22:14:00,
2014-01-02 14:19:00,76.7,18.3,29.94,WNW,296,1.0,6.0,11,0.00,,---,0.00,396.00,VWS V15.00,2014-01-02 22:19:00,
2014-01-02 14:24:00,76.5,18.1,29.94,NW,314,2.0,8.0,11,0.00,,---,0.00,218.00,VWS V15.00,2014-01-02 22:24:00,
2014-01-02 14:29:00,77.0,16.3,29.94,North,5,4.0,8.0,10,0.00,,---,0.00,369.00,VWS V15.00,2014-01-02 22:29:00,
2014-01-02 14:34:00,76.8,16.2,29.93,NW,326,4.0,8.0,10,0.00,,---,0.00,359.00,VWS V15.00,2014-01-02 22:34:00,
2014-01-02 14:39:00,76.7,16.1,29.93,WNW,291,1.0,8.0,10,0.00,,---,0.00,343.00,VWS V15.00,2014-01-02 22:39:00,
2014-01-02 14:44:00,77.0,16.3,29.93,North,351,1.0,8.0,10,0.00,,---,0.00,332.00,VWS V15.00,2014-01-02 22:44:00,
2014-01-02 14:49:00,76.8,16.2,29.93,NNE,21,1.0,8.0,10,0.00,,---,0.00,308.00,VWS V15.00,2014-01-02 22:49:00,
2014-01-02 14:54:00,76.8,16.2,29.93,NNW,342,0.0,8.0,10,0.00,,---,0.00,294.00,VWS V15.00,2014-01-02 22:54:00,
2014-01-02 14:59:00,76.7,16.1,29.93,NNW,342,0.0,8.0,10,0.00,,---,0.00,285.00,VWS V15.00,2014-01-02 22:59:00,
2014-01-02 15:04:00,76.5,18.1,29.93,NNW,331,0.0,8.0,11,0.00,,---,0.00,276.00,VWS V15.00,2014-01-02 23:04:00,
2014-01-02 15:09:00,76.3,18.0,29.93,NW,317,3.0,8.0,11,0.00,,---,0.00,255.00,VWS V15.00,2014-01-02 23:09:00,
2014-01-02 15:14:00,76.0,19.8,29.93,NW,314,4.0,8.0,12,0.00,,---,0.00,237.00,VWS V15.00,2014-01-02 23:14:00,
2014-01-02 15:19:00,75.6,19.5,29.94,WNW,297,1.0,8.0,12,0.00,,---,0.00,209.00,VWS V15.00,2014-01-02 23:19:00,
2014-01-02 15:24:00,75.6,19.5,29.94,WNW,297,0.0,8.0,12,0.00,,---,0.00,179.00,VWS V15.00,2014-01-02 23:24:00,
2014-01-02 15:29:00,75.4,21.2,29.94,WNW,300,1.0,8.0,13,0.00,,---,0.00,190.00,VWS V15.00,2014-01-02 23:29:00,
2014-01-02 15:34:00,75.1,20.9,29.93,WNW,301,2.0,8.0,13,0.00,,---,0.00,188.00,VWS V15.00,2014-01-02 23:34:00,
2014-01-02 15:40:00,74.9,18.9,29.93,NW,321,3.0,8.0,12,0.00,,---,0.00,186.00,VWS V15.00,2014-01-02 23:40:00,
2014-01-02 15:45:00,74.6,20.5,29.93,WNW,296,0.0,8.0,13,0.00,,---,0.00,174.00,VWS V15.00,2014-01-02 23:45:00,
2014-01-02 15:50:00,74.6,20.5,29.94,WNW,302,0.0,8.0,13,0.00,,---,0.00,167.00,VWS V15.00,2014-01-02 23:50:00,
2014-01-02 15:55:00,74.2,20.2,29.94,NW,321,3.0,8.0,13,0.00,,---,0.00,111.00,VWS V15.00,2014-01-02 23:55:00,
2014-01-02 16:00:00,73.7,19.8,29.94,NNW,328,0.0,8.0,13,0.00,,---,0.00,65.00,VWS V15.00,2014-01-03 00:00:00,
2014-01-02 16:05:00,73.2,21.2,29.94,NNW,331,2.0,4.0,14,0.00,,---,0.00,107.00,VWS V15.00,2014-01-03 00:05:00,
2014-01-02 16:10:00,72.8,20.9,29.94,NW,323,1.0,4.0,14,0.00,,---,0.00,105.00,VWS V15.00,2014-01-03 00:10:00,
2014-01-02 16:15:00,72.7,20.8,29.94,WNW,299,2.0,5.0,14,0.00,,---,0.00,86.00,VWS V15.00,2014-01-03 00:15:00,
2014-01-02 16:20:00,72.3,20.5,29.94,NW,321,0.0,5.0,14,0.00,,---,0.00,53.00,VWS V15.00,2014-01-03 00:20:00,
2014-01-02 16:25:00,71.8,20.1,29.94,NW,321,0.0,5.0,14,0.00,,---,0.00,25.00,VWS V15.00,2014-01-03 00:25:00,
2014-01-02 16:30:00,71.3,21.3,29.94,NW,321,2.0,5.0,15,0.00,,---,0.00,19.00,VWS V15.00,2014-01-03 00:30:00,
2014-01-02 16:35:00,70.8,20.9,29.94,NW,321,0.0,5.0,15,0.00,,---,0.00,14.00,VWS V15.00,2014-01-03 00:35:00,
2014-01-02 16:40:00,70.1,21.9,29.94,NW,321,0.0,5.0,16,0.00,,---,0.00,11.00,VWS V15.00,2014-01-03 00:40:00,
2014-01-02 16:45:00,69.6,19.9,29.94,NW,321,0.0,5.0,15,0.00,,---,0.00,9.00,VWS V15.00,2014-01-03 00:45:00,
2014-01-02 16:50:00,69.1,19.5,29.94,NW,321,0.0,5.0,15,0.00,,---,0.00,5.00,VWS V15.00,2014-01-03 00:50:00,
2014-01-02 16:55:00,68.3,20.4,29.94,NW,321,0.0,5.0,16,0.00,,---,0.00,0.00,VWS V15.00,2014-01-03 00:55:00,
2014-01-02 17:00:00,67.6,19.9,29.94,NW,321,0.0,5.0,16,0.00,,---,0.00,0.00,VWS V15.00,2014-01-03 01:00:00,
2014-01-02 17:05:00,67.1,19.4,29.94,NW,321,0.0,5.0,16,0.00,,---,0.00,0.00,VWS V15.00,2014-01-03 01:05:00,
2014-01-02 17:10:00,66.3,20.2,29.94,NW,321,0.0,5.0,17,0.00,,---,0.00,0.00,VWS V15.00,2014-01-03 01:10:00,
2014-01-02 17:15:00,65.6,19.6,29.95,NW,321,0.0,5.0,17,0.00,,---,0.00,0.00,VWS V15.00,2014-01-03 01:15:00,
2014-01-02 17:20:00,65.0,19.2,29.95,NW,321,0.0,5.0,17,0.00,,---,0.00,0.00,VWS V15.00,2014-01-03 01:20:00,
2014-01-02 17:25:00,64.3,18.6,29.95,NW,321,0.0,5.0,17,0.00,,---,0.00,0.00,VWS V15.00,2014-01-03 01:25:00,
2014-01-02 17:30:00,63.7,19.4,29.95,NW,321,0.0,5.0,18,0.00,,---,0.00,0.00,VWS V15.00,2014-01-03 01:30:00,
2014-01-02 17:35:00,63.2,19.0,29.95,NW,321,0.0,5.0,18,0.00,,---,0.00,0.00,VWS V15.00,2014-01-03 01:35:00,
2014-01-02 17:40:00,63.1,18.9,29.95,NW,321,0.0,5.0,18,0.00,,---,0.00,0.00,VWS V15.00,2014-01-03 01:40:00,
2014-01-02 17:45:00,62.6,18.5,29.95,NW,321,0.0,5.0,18,0.00,,---,0.00,0.00,VWS V15.00,2014-01-03 01:45:00,
2014-01-02 17:50:00,62.1,18.1,29.95,NW,321,0.0,5.0,18,0.00,,---,0.00,0.00,VWS V15.00,2014-01-03 01:50:00,
2014-01-02 17:55:00,62.0,18.0,29.95,NW,321,0.0,5.0,18,0.00,,---,0.00,0.00,VWS V15.00,2014-01-03 01:55:00,
2014-01-02 18:00:00,62.0,18.0,29.95,NW,321,0.0,5.0,18,0.00,,---,0.00,0.00,VWS V15.00,2014-01-03 02:00:00,
2014-01-02 18:06:00,62.1,18.1,29.95,NNE,30,0.0,3.0,18,0.00,,---,0.00,0.00,VWS V15.00,2014-01-03 02:06:00,
2014-01-02 18:11:00,62.4,18.4,29.95,NNE,30,0.0,3.0,18,0.00,,---,0.00,0.00,VWS V15.00,2014-01-03 02:11:00,
2014-01-02 18:16:00,62.3,18.3,29.95,NNE,30,0.0,3.0,18,0.00,,---,0.00,0.00,VWS V15.00,2014-01-03 02:16:00,
2014-01-02 18:21:00,61.5,18.9,29.95,NNE,30,0.0,3.0,19,0.00,,---,0.00,0.00,VWS V15.00,2014-01-03 02:21:00,
2014-01-02 18:26:00,60.9,18.4,29.95,NNE,30,0.0,3.0,19,0.00,,---,0.00,0.00,VWS V15.00,2014-01-03 02:26:00,
2014-01-02 18:31:00,61.2,18.6,29.96,NNE,30,0.0,3.0,19,0.00,,---,0.00,0.00,VWS V15.00,2014-01-03 02:31:00,
2014-01-02 18:36:00,61.2,18.6,29.96,NNE,30,0.0,3.0,19,0.00,,---,0.00,0.00,VWS V15.00,2014-01-03 02:36:00,
2014-01-02 18:41:00,61.2,18.6,29.96,NNE,30,0.0,3.0,19,0.00,,---,0.00,0.00,VWS V15.00,2014-01-03 02:41:00,
2014-01-02 18:46:00,61.3,18.7,29.96,NNE,30,0.0,3.0,19,0.00,,---,0.00,0.00,VWS V15.00,2014-01-03 02:46:00,
2014-01-02 18:51:00,60.7,18.2,29.96,NNE,30,0.0,3.0,19,0.00,,---,0.00,0.00,VWS V15.00,2014-01-03 02:51:00,
2014-01-02 18:56:00,60.9,18.4,29.96,NNE,33,2.0,3.0,19,0.00,,---,0.00,0.00,VWS V15.00,2014-01-03 02:56:00,
2014-01-02 19:01:00,61.3,17.5,29.96,NE,34,0.0,3.0,18,0.00,,---,0.00,0.00,VWS V15.00,2014-01-03 03:01:00,
2014-01-02 19:06:00,61.8,17.9,29.96,NE,38,0.0,3.0,18,0.00,,---,0.00,0.00,VWS V15.00,2014-01-03 03:06:00,
2014-01-02 19:11:00,62.0,18.0,29.96,NE,38,0.0,3.0,18,0.00,,---,0.00,0.00,VWS V15.00,2014-01-03 03:11:00,
2014-01-02 19:16:00,61.8,17.9,29.96,NE,38,2.0,3.0,18,0.00,,---,0.00,0.00,VWS V15.00,2014-01-03 03:16:00,
2014-01-02 19:21:00,61.6,17.7,29.96,NE,38,1.0,3.0,18,0.00,,---,0.00,0.00,VWS V15.00,2014-01-03 03:21:00,
2014-01-02 19:26:00,61.5,17.6,29.96,NNE,28,0.0,3.0,18,0.00,,---,0.00,0.00,VWS V15.00,2014-01-03 03:26:00,
2014-01-02 19:31:00,61.3,17.5,29.96,NNE,31,2.0,3.0,18,0.00,,---,0.00,0.00,VWS V15.00,2014-01-03 03:31:00,
2014-01-02 19:36:00,61.3,17.5,29.96,NNE,32,0.0,3.0,18,0.00,,---,0.00,0.00,VWS V15.00,2014-01-03 03:36:00,
2014-01-02 19:41:00,61.2,18.6,29.96,NNE,32,0.0,3.0,19,0.00,,---,0.00,0.00,VWS V15.00,2014-01-03 03:41:00,
2014-01-02 19:46:00,60.9,18.4,29.96,NNE,32,0.0,3.0,19,0.00,,---,0.00,0.00,VWS V15.00,2014-01-03 03:46:00,
2014-01-02 19:51:00,60.9,18.4,29.96,NNE,32,0.0,3.0,19,0.00,,---,0.00,0.00,VWS V15.00,2014-01-03 03:51:00,
2014-01-02 19:56:00,60.7,18.2,29.96,NNE,32,0.0,3.0,19,0.00,,---,0.00,0.00,VWS V15.00,2014-01-03 03:56:00,
2014-01-02 20:01:00,60.4,18.0,29.96,NNE,32,0.0,0.0,19,0.00,,---,0.00,0.00,VWS V15.00,2014-01-03 04:01:00,
2014-01-02 20:06:00,60.1,17.7,29.96,NNE,32,0.0,0.0,19,0.00,,---,0.00,0.00,VWS V15.00,2014-01-03 04:06:00,
2014-01-02 20:11:00,59.8,17.5,29.96,NNE,32,0.0,0.0,19,0.00,,---,0.00,0.00,VWS V15.00,2014-01-03 04:11:00,
2014-01-02 20:16:00,59.3,18.3,29.96,NNE,32,0.0,0.0,20,0.00,,---,0.00,0.00,VWS V15.00,2014-01-03 04:16:00,
2014-01-02 20:21:00,58.9,17.9,29.96,NNE,32,0.0,0.0,20,0.00,,---,0.00,0.00,VWS V15.00,2014-01-03 04:21:00,
2014-01-02 20:26:00,58.3,18.6,29.96,NNE,32,0.0,0.0,21,0.00,,---,0.00,0.00,VWS V15.00,2014-01-03 04:26:00,
2014-01-02 20:31:00,57.2,19.8,29.96,NNE,32,0.0,0.0,23,0.00,,---,0.00,0.00,VWS V15.00,2014-01-03 04:31:00,
2014-01-02 20:36:00,56.7,19.3,29.96,NNE,32,0.0,0.0,23,0.00,,---,0.00,0.00,VWS V15.00,2014-01-03 04:36:00,
2014-01-02 20:41:00,56.7,19.3,29.96,NNE,32,0.0,0.0,23,0.00,,---,0.00,0.00,VWS V15.00,2014-01-03 04:41:00,
2014-01-02 20:46:00,56.5,19.2,29.97,NNE,32,0.0,0.0,23,0.00,,---,0.00,0.00,VWS V15.00,2014-01-03 04:46:00,
2014-01-02 20:51:00,55.7,19.5,29.97,NNE,32,0.0,0.0,24,0.00,,---,0.00,0.00,VWS V15.00,2014-01-03 04:51:00,
2014-01-02 20:57:00,55.3,19.1,29.97,NNE,32,0.0,0.0,24,0.00,,---,0.00,0.00,VWS V15.00,2014-01-03 04:57:00,
2014-01-02 21:01:00,54.7,19.6,29.96,NNE,32,0.0,0.0,25,0.00,,---,0.00,0.00,VWS V15.00,2014-01-03 05:01:00,
2014-01-02 21:03:00,54.4,19.3,29.96,NNE,32,0.0,0.0,25,0.00,,---,0.00,0.00,VWS V15.00,2014-01-03 05:03:00,
2014-01-02 21:08:00,54.1,20.0,29.96,NNE,32,1.0,2.0,26,0.00,,---,0.00,0.00,VWS V15.00,2014-01-03 05:08:00,
2014-01-02 21:13:00,54.2,19.2,29.96,NNE,33,0.0,2.0,25,0.00,,---,0.00,0.00,VWS V15.00,2014-01-03 05:13:00,
2014-01-02 21:18:00,54.8,18.7,29.96,NNE,33,0.0,2.0,24,0.00,,---,0.00,0.00,VWS V15.00,2014-01-03 05:18:00,
2014-01-02 21:23:00,54.5,19.4,29.96,NNE,33,0.0,2.0,25,0.00,,---,0.00,0.00,VWS V15.00,2014-01-03 05:23:00,
2014-01-02 21:28:00,54.2,19.2,29.96,NNE,33,0.0,2.0,25,0.00,,---,0.00,0.00,VWS V15.00,2014-01-03 05:28:00,
2014-01-02 21:33:00,54.4,19.3,29.96,NNE,33,0.0,2.0,25,0.00,,---,0.00,0.00,VWS V15.00,2014-01-03 05:33:00,
2014-01-02 21:38:00,54.2,19.2,29.96,NNE,33,0.0,2.0,25,0.00,,---,0.00,0.00,VWS V15.00,2014-01-03 05:38:00,
2014-01-02 21:43:00,54.2,19.2,29.96,NNE,33,0.0,2.0,25,0.00,,---,0.00,0.00,VWS V15.00,2014-01-03 05:43:00,
2014-01-02 21:48:00,55.0,18.9,29.97,NNE,33,0.0,2.0,24,0.00,,---,0.00,0.00,VWS V15.00,2014-01-03 05:48:00,
2014-01-02 21:53:00,55.4,19.2,29.97,NNE,33,0.0,2.0,24,0.00,,---,0.00,0.00,VWS V15.00,2014-01-03 05:53:00,
2014-01-02 21:58:00,55.4,19.2,29.97,NNE,33,0.0,2.0,24,0.00,,---,0.00,0.00,VWS V15.00,2014-01-03 05:58:00,
2014-01-02 22:03:00,55.3,19.1,29.96,NNE,33,0.0,0.0,24,0.00,,---,0.00,0.00,VWS V15.00,2014-01-03 06:03:00,
2014-01-02 22:08:00,55.3,20.1,29.96,NNE,33,0.0,1.0,25,0.00,,---,0.00,0.00,VWS V15.00,2014-01-03 06:08:00,
2014-01-02 22:13:00,55.3,20.1,29.96,NNE,33,0.0,1.0,25,0.00,,---,0.00,0.00,VWS V15.00,2014-01-03 06:13:00,
2014-01-02 22:18:00,55.9,19.6,29.96,NNE,33,0.0,1.0,24,0.00,,---,0.00,0.00,VWS V15.00,2014-01-03 06:18:00,
2014-01-02 22:23:00,55.7,19.5,29.96,NNE,33,0.0,1.0,24,0.00,,---,0.00,0.00,VWS V15.00,2014-01-03 06:23:00,
2014-01-02 22:28:00,55.4,19.2,29.96,NNE,33,0.0,1.0,24,0.00,,---,0.00,0.00,VWS V15.00,2014-01-03 06:28:00,
2014-01-02 22:33:00,55.7,19.5,29.96,NNE,33,0.0,1.0,24,0.00,,---,0.00,0.00,VWS V15.00,2014-01-03 06:33:00,
2014-01-02 22:38:00,55.9,19.6,29.96,NNE,33,0.0,1.0,24,0.00,,---,0.00,0.00,VWS V15.00,2014-01-03 06:38:00,
2014-01-02 22:43:00,56.2,19.9,29.96,NNE,33,0.0,1.0,24,0.00,,---,0.00,0.00,VWS V15.00,2014-01-03 06:43:00,
2014-01-02 22:48:00,56.0,19.7,29.96,NNE,33,0.0,1.0,24,0.00,,---,0.00,0.00,VWS V15.00,2014-01-03 06:48:00,
2014-01-02 22:53:00,56.0,19.7,29.96,NNE,33,0.0,1.0,24,0.00,,---,0.00,0.00,VWS V15.00,2014-01-03 06:53:00,
2014-01-02 22:58:00,55.6,19.4,29.96,NNE,33,0.0,1.0,24,0.00,,---,0.00,0.00,VWS V15.00,2014-01-03 06:58:00,
2014-01-02 23:03:00,54.7,19.6,29.96,NNE,33,0.0,1.0,25,0.00,,---,0.00,0.00,VWS V15.00,2014-01-03 07:03:00,
2014-01-02 23:08:00,54.2,19.2,29.96,NNE,33,0.0,1.0,25,0.00,,---,0.00,0.00,VWS V15.00,2014-01-03 07:08:00,
2014-01-02 23:13:00,54.5,19.4,29.96,NNE,33,0.0,1.0,25,0.00,,---,0.00,0.00,VWS V15.00,2014-01-03 07:13:00,
2014-01-02 23:18:00,55.1,19.9,29.96,NNE,33,0.0,1.0,25,0.00,,---,0.00,0.00,VWS V15.00,2014-01-03 07:18:00,
2014-01-02 23:23:00,54.7,19.6,29.96,NNE,33,0.0,1.0,25,0.00,,---,0.00,0.00,VWS V15.00,2014-01-03 07:23:00,
2014-01-02 23:29:00,54.2,20.1,29.96,NNE,33,0.0,1.0,26,0.00,,---,0.00,0.00,VWS V15.00,2014-01-03 07:29:00,
2014-01-02 23:34:00,54.1,20.0,29.96,NNE,33,0.0,1.0,26,0.00,,---,0.00,0.00,VWS V15.00,2014-01-03 07:34:00,
2014-01-02 23:39:00,52.9,20.7,29.96,NNE,33,0.0,1.0,28,0.00,,---,0.00,0.00,VWS V15.00,2014-01-03 07:39:00,
2014-01-02 23:44:00,52.2,19.2,29.96,NNE,33,0.0,1.0,27,0.00,,---,0.00,0.00,VWS V15.00,2014-01-03 07:44:00,
2014-01-02 23:49:00,52.0,19.9,29.95,NNE,33,0.0,1.0,28,0.00,,---,0.00,0.00,VWS V15.00,2014-01-03 07:49:00,
2014-01-02 23:54:00,52.8,20.6,29.95,NNE,33,0.0,2.0,28,0.00,,---,0.00,0.00,VWS V15.00,2014-01-03 07:54:00,
2014-01-02 23:59:00,53.9,19.8,29.95,NNE,33,0.0,2.0,26,0.00,,---,0.00,0.00,VWS V15.00,2014-01-03 07:59:00,